sat.trackr.live / text

‹ back to catalog

LINUSS2

NORAD 55247 · 2022-144H

PAYLOAD ACTIVE UNKNOWN

§ Identity

Operator
Country
US
Launch date
2022-11-01
Launch site
AFETR
Launch vehicle
Mass (kg)
RCS (m²)

External: N2YO · Heavens-Above · Gunter

§ Orbital elements

Epoch: 2026-09-21T15:18:33.347808Z

Period
1,453.74 min
Inclination
5.6115°
Eccentricity
0.0005286
Mean motion
0.99054881 rev/d
Perigee alt
36,108.8 km
Apogee alt
36,153.7 km
Semi-major
42,509.4 km
B*
0.0000e+0
RAAN
63.3874°
Arg perigee
301.3205°
Mean anomaly
31.6091°
Rev number
1,266

§ Raw data

LINUSS21 55247U 22144H   26264.63788597 -.00000237  00000+0  00000+0 0  99902 55247   5.6115  63.3874 0005286 301.3205  31.6091  0.99054881 12668

JSON: /api/v1/satellites/55247 · /tle

For live sub-satellite position, see the globe view (requires WebGL).

§ Visibility from observer

Set your observer location to see the next 7 days of passes ≥ 10°. The values pass through the URL so the page stays shareable.

No JS? Fill the form by hand. The geolocation button needs JavaScript.